Thunderstorms From: 23-05-2018 15:04 Until: 24-05-2018 15:00 warning for: Thunderstorms Level: Yellow info button

Although rather usual in this region, locally or potentially dangerous phenomena are expected. (such as local winds, summer thunderstorms, rising streams or high waves) Be aware and pay attention to the latest weather updates, especially if you carry out activities exposed to weather or close to a stream or shoreline. 


Meteo18 Weather Cam more information Meteo18 Weather Cam


warning for Thunderstorms more information blitzortung!


Rain radar more information rain snow radar


Visit our other weather sites:

Template documentation
and downloads

And another site



Weather Underground History page Text

Daily Summary for January 7, 2018 Units:  Metric    English   Both
« Previous Day
Next Day »
Daily Weekly Monthly Yearly Custom
  High: Low: Average:
Temperature: -17.8 °C -14.3 °C -13.6 °C
Dew Point: -17.8 °C -14.7 °C -14.2 °C
Humidity: Humidity % 90 % 93 %
Wind Speed: 0 km/h 0 km/h 23 km/h
Wind Gust: 0 km/h - -
Wind:- - ENE
Pressure: 0 hPa 34144.4 hPa -
Precipitation: 38.1 mm    
Historical Graphs
 
 
Tabular Data for January 7, 2018
Time Temperature Dew Point Pressure Wind Wind Speed Wind Gust Humidity Rainfall Rate (Hourly)
-17.8 °C -17.8 °C 0 hPa Calm     Humidity % 0 mm
00:04 -14.3 °C -14.7 °C 34154.6 hPa NNE 17.9 km/h 38.8 km/h 95 % 0 mm
00:06 -14.3 °C -14.7 °C 34154.6 hPa North 20.9 km/h 25.9 km/h 95 % 0 mm
00:14 -14.3 °C -14.7 °C 34154.6 hPa NE 5.1 km/h 31.1 km/h 95 % 0 mm
00:20 -14.3 °C -14.7 °C 34154.6 hPa ENE 7.6 km/h 33.6 km/h 95 % 0 mm
00:26 -14.3 °C -14.7 °C 34154.6 hPa NNE 17.9 km/h 31.1 km/h 95 % 0 mm
00:32 -14.3 °C -14.7 °C 34164.7 hPa NE 15.6 km/h 23.3 km/h 95 % 0 mm
00:40 -14.3 °C -14.7 °C 34164.7 hPa North 23 km/h 33.6 km/h 95 % 0 mm
00:51 -14.3 °C -14.7 °C 34164.7 hPa NNE 5.1 km/h 28.5 km/h 95 % 0 mm
00:58 -14.3 °C -14.7 °C 34164.7 hPa NE 20.9 km/h 28.5 km/h 95 % 0 mm
01:04 -14.2 °C -14.6 °C 34154.6 hPa NE 20.9 km/h 38.8 km/h 95 % 0 mm
01:10 -14.2 °C -14.6 °C 34154.6 hPa North 26.2 km/h 41.4 km/h 95 % 0 mm
01:12 -14.2 °C -14.6 °C 34154.6 hPa NE 23 km/h 33.6 km/h 96 % 0 mm
01:20 -14.2 °C -14.6 °C 34154.6 hPa NE 15.6 km/h 31.1 km/h 96 % 0 mm
01:28 -14.2 °C -14.6 °C 34164.7 hPa NE 15.6 km/h 36.2 km/h 96 % 0 mm
01:36 -14.2 °C -14.6 °C 34164.7 hPa NE 12.7 km/h 25.9 km/h 96 % 0 mm
01:42 -14.2 °C -14.6 °C 34164.7 hPa NE 17.9 km/h 33.6 km/h 96 % 0 mm
01:46 -14.2 °C -14.6 °C 34164.7 hPa ENE 23 km/h 28.5 km/h 96 % 0 mm
01:48 -14.2 °C -14.6 °C 34164.7 hPa NE 23 km/h 36.2 km/h 96 % 0 mm
01:57 -14.2 °C -14.6 °C 34164.7 hPa North 12.7 km/h 41.4 km/h 96 % 0 mm
02:02 -14.2 °C -14.6 °C 34164.7 hPa NNE 17.9 km/h 31.1 km/h 96 % 0 mm
02:08 -14.2 °C -14.4 °C 34164.7 hPa NNE 15.6 km/h 41.4 km/h 97 % 0 mm
02:14 -14.2 °C -14.4 °C 34164.7 hPa NNE 12.7 km/h 36.2 km/h 97 % 0 mm
02:16 -14.2 °C -14.4 °C 34164.7 hPa NE 20.9 km/h 31.1 km/h 97 % 0 mm
02:22 -14.2 °C -14.4 °C 34164.7 hPa NNE 20.9 km/h 31.1 km/h 97 % 0 mm
02:28 -14.2 °C -14.4 °C 34164.7 hPa NE 17.9 km/h 36.2 km/h 97 % 0 mm
02:30 -14.2 °C -14.4 °C 34164.7 hPa NE 10.3 km/h 36.2 km/h 97 % 0 mm
02:36 -14.2 °C -14.4 °C 34164.7 hPa NNE 15.6 km/h 36.2 km/h 97 % 0 mm
02:45 -14.2 °C -14.4 °C 34164.7 hPa NNE 15.6 km/h 28.5 km/h 97 % 0 mm
02:51 -14.2 °C -14.4 °C 34154.6 hPa NNE 10.3 km/h 33.6 km/h 97 % 7.62 mm
03:02 -14.1 °C -14.3 °C 34164.7 hPa North 7.6 km/h 20.8 km/h 97 % 7.62 mm
03:10 -14.1 °C -14.3 °C 34178.3 hPa NNE 12.7 km/h 31.1 km/h 97 % 12.7 mm
03:16 -14.1 °C -14.3 °C 34164.7 hPa NE 15.6 km/h 33.6 km/h 97 % 12.7 mm
03:22 -14.1 °C -14.3 °C 34164.7 hPa NE 12.7 km/h 33.6 km/h 97 % 12.7 mm
03:28 -14.1 °C -14.3 °C 34164.7 hPa NNE 17.9 km/h 25.9 km/h 97 % 20.32 mm
03:36 -14.1 °C -14.3 °C 34164.7 hPa NE 17.9 km/h 28.5 km/h 97 % 20.32 mm
03:42 -14.1 °C -14.3 °C 34164.7 hPa North 10.3 km/h 20.8 km/h 97 % 20.32 mm
03:48 -14.1 °C -14.3 °C 34178.3 hPa NNE 23 km/h 36.2 km/h 97 % 20.32 mm
03:54 -14.1 °C -14.3 °C 34164.7 hPa ENE 10.3 km/h 31.1 km/h 97 % 20.32 mm
04:00 -14 °C -14.2 °C 34164.7 hPa NNW 10.3 km/h 38.8 km/h 97 % 20.32 mm
04:03 -14 °C -14.2 °C 34164.7 hPa NE 20.9 km/h 36.2 km/h 97 % 20.32 mm
04:04 -14 °C -14.2 °C 34164.7 hPa NE 26.2 km/h 33.6 km/h 97 % 20.32 mm
04:08 -14 °C -14.2 °C 34164.7 hPa NNW 15.6 km/h 31.1 km/h 97 % 20.32 mm
04:14 -14 °C -14.2 °C 34164.7 hPa NNE 26.2 km/h 41.4 km/h 97 % 20.32 mm
04:20 -14 °C -14.2 °C 34164.7 hPa North 12.7 km/h 36.2 km/h 97 % 20.32 mm
04:26 -13.9 °C -14.2 °C 34164.7 hPa North 28.5 km/h 44.1 km/h 97 % 20.32 mm
04:36 -13.9 °C -14.2 °C 34154.6 hPa NE 17.9 km/h 33.6 km/h 97 % 12.7 mm
04:46 -13.9 °C -14.2 °C 34154.6 hPa NE 17.9 km/h 46.7 km/h 97 % 12.7 mm
04:52 -13.9 °C -14.2 °C 34154.6 hPa NE 33.6 km/h 44.1 km/h 97 % 12.7 mm
04:58 -13.9 °C -14.2 °C 34154.6 hPa NE 23 km/h 44.1 km/h 97 % 12.7 mm
05:04 -13.9 °C -14.2 °C 34154.6 hPa NNE 31.4 km/h 46.7 km/h 97 % 7.62 mm
05:10 -13.9 °C -14.2 °C 34154.6 hPa ENE 28.5 km/h 46.7 km/h 97 % 7.62 mm
05:14 -13.9 °C -14.2 °C 34154.6 hPa NE 23 km/h 38.8 km/h 97 % 7.62 mm
05:20 -13.9 °C -14.2 °C 34144.4 hPa NE 28.5 km/h 44.1 km/h 97 % 7.62 mm
05:26 -13.9 °C -14.2 °C 34144.4 hPa NE 31.4 km/h 51.8 km/h 97 % 7.62 mm
05:39 -13.9 °C -14.2 °C 34144.4 hPa NE 20.9 km/h 51.8 km/h 97 % 7.62 mm
05:44 -13.9 °C -14.1 °C 34144.4 hPa NE 10.3 km/h 41.4 km/h 97 % 7.62 mm
05:50 -13.9 °C -14.1 °C 34144.4 hPa NE 20.9 km/h 46.7 km/h 97 % 7.62 mm
05:56 -13.9 °C -14.1 °C 34144.4 hPa NE 31.4 km/h 46.7 km/h 97 % 7.62 mm
06:02 -13.8 °C -14.1 °C 34144.4 hPa NE 33.6 km/h 44.1 km/h 97 % 7.62 mm
06:08 -13.8 °C -14.1 °C 34154.6 hPa NNE 31.4 km/h 46.7 km/h 97 % 7.62 mm
06:14 -13.9 °C -14.1 °C 34144.4 hPa NE 44.1 km/h 44.1 km/h 97 % 7.62 mm
06:22 -13.9 °C -14.1 °C 34154.6 hPa NE 38.8 km/h 44.1 km/h 97 % 0 mm
06:30 -13.8 °C -14.1 °C 34154.6 hPa NE 28.5 km/h 44.1 km/h 97 % 0 mm
06:36 -13.9 °C -14.1 °C 34154.6 hPa NNE 33.6 km/h 49.2 km/h 97 % 0 mm
06:48 -13.8 °C -14.1 °C 34154.6 hPa NNE 44.1 km/h 46.7 km/h 97 % 0 mm
06:54 -13.8 °C -14.1 °C 34154.6 hPa NNE 28.5 km/h 41.4 km/h 97 % 0 mm
07:00 -13.8 °C -14.1 °C 34164.7 hPa NE 31.4 km/h 46.7 km/h 97 % 0 mm
07:04 -13.8 °C -14.1 °C 34164.7 hPa NNE 28.5 km/h 38.8 km/h 97 % 0 mm
07:06 -13.8 °C -14.1 °C 34164.7 hPa ENE 23 km/h 33.6 km/h 97 % 0 mm
07:13 -13.8 °C -14.1 °C 34164.7 hPa NE 28.5 km/h 44.1 km/h 97 % 0 mm
07:19 -13.8 °C -14.1 °C 34164.7 hPa NE 36.5 km/h 44.1 km/h 97 % 0 mm
07:27 -13.8 °C -14.1 °C 34164.7 hPa ENE 33.6 km/h 49.2 km/h 97 % 0 mm
07:33 -13.8 °C -14.1 °C 34164.7 hPa NE 41.7 km/h 44.1 km/h 97 % 0 mm
07:39 -13.8 °C -14.1 °C 34164.7 hPa NNE 46.3 km/h 59.5 km/h 97 % 0 mm
07:46 -13.8 °C -14.1 °C 34164.7 hPa NNE 31.4 km/h 54.4 km/h 96 % 0 mm
07:57 -13.8 °C -14.1 °C 34178.3 hPa NE 33.6 km/h 44.1 km/h 96 % 0 mm
08:03 -13.8 °C -14.1 °C 34188.4 hPa NNE 28.5 km/h 38.8 km/h 96 % 0 mm
08:09 -13.7 °C -14.1 °C 34188.4 hPa NE 28.5 km/h 41.4 km/h 96 % 0 mm
08:23 -13.7 °C -14.1 °C 34198.6 hPa NNW 15.6 km/h 38.8 km/h 96 % 0 mm
08:29 -13.7 °C -14 °C 34188.4 hPa North 20.9 km/h 49.2 km/h 96 % 0 mm
08:35 -13.7 °C -14 °C 34188.4 hPa NNW 26.2 km/h 54.4 km/h 96 % 0 mm
08:41 -13.7 °C -14 °C 34198.6 hPa NE 41.7 km/h 57 km/h 96 % 0 mm
08:47 -13.6 °C -14 °C 34198.6 hPa North 17.9 km/h 46.7 km/h 95 % 0 mm
08:53 -13.6 °C -13.9 °C 34198.6 hPa North 17.9 km/h 38.8 km/h 95 % 0 mm
08:57 -13.6 °C -13.9 °C 34198.6 hPa NE 28.5 km/h 44.1 km/h 95 % 0 mm
09:13 -13.5 °C -13.9 °C 34198.6 hPa NE 31.4 km/h 51.8 km/h 95 % 0 mm
09:21 -13.5 °C -14 °C 34198.6 hPa NNE 41.7 km/h 46.7 km/h 94 % 0 mm
09:23 -13.5 °C -14 °C 34198.6 hPa NE 46.3 km/h 54.4 km/h 94 % 0 mm
09:27 -13.5 °C -14 °C 34212.1 hPa NE 33.6 km/h 51.8 km/h 94 % 0 mm
09:33 -13.4 °C -13.9 °C 34212.1 hPa NE 28.5 km/h 59.5 km/h 94 % 0 mm
09:41 -13.4 °C -13.9 °C 34222.3 hPa NNE 23 km/h 46.7 km/h 94 % 0 mm
09:43 -13.4 °C -13.9 °C 34222.3 hPa NNE 31.4 km/h 51.8 km/h 94 % 0 mm
09:51 -13.4 °C -14 °C 34222.3 hPa ENE 15.6 km/h 44.1 km/h 93 % 0 mm
10:05 -13.4 °C -14 °C 34222.3 hPa NE 36.5 km/h 46.7 km/h 93 % 0 mm
10:11 -13.4 °C -14 °C 34235.8 hPa ENE 28.5 km/h 41.4 km/h 93 % 0 mm
10:13 -13.4 °C -14 °C 34235.8 hPa NE 20.9 km/h 38.8 km/h 93 % 0 mm
10:19 -13.3 °C -13.9 °C 34246 hPa NNE 36.5 km/h 38.8 km/h 93 % 0 mm
10:27 -13.3 °C -13.9 °C 34246 hPa NE 28.5 km/h 49.2 km/h 93 % 0 mm
10:34 -13.3 °C -13.9 °C 34246 hPa NE 28.5 km/h 38.8 km/h 93 % 0 mm
10:39 -13.3 °C -13.9 °C 34235.8 hPa NNE 20.9 km/h 57 km/h 93 % 0 mm
10:45 -13.3 °C -13.9 °C 34235.8 hPa NE 54.4 km/h 54.4 km/h 93 % 0 mm
10:51 -13.3 °C -13.9 °C 34246 hPa NNE 46.3 km/h 46.7 km/h 93 % 0 mm
10:53 -13.3 °C -13.9 °C 34246 hPa NNE 31.4 km/h 46.7 km/h 93 % 0 mm
10:59 -13.3 °C -13.9 °C 34235.8 hPa ENE 59.5 km/h 62.1 km/h 93 % 0 mm
11:05 -13.2 °C -13.8 °C 34235.8 hPa NE 67.1 km/h 67.3 km/h 93 % 0 mm
11:11 -13.2 °C -13.8 °C 34222.3 hPa NNE 41.7 km/h 51.8 km/h 93 % 0 mm
11:21 -13.2 °C -13.8 °C 34222.3 hPa NNE 44.1 km/h 62.1 km/h 92 % 0 mm
11:23 -13.2 °C -13.8 °C 34222.3 hPa NE 41.7 km/h 57 km/h 92 % 0 mm
11:27 -13.1 °C -13.8 °C 34222.3 hPa NE 31.4 km/h 54.4 km/h 92 % 0 mm
11:35 -13.1 °C -13.8 °C 34222.3 hPa NE 38.8 km/h 54.4 km/h 92 % 0 mm
11:41 -13.1 °C -13.8 °C 34222.3 hPa NNE 28.5 km/h 46.7 km/h 92 % 0 mm
11:49 -13 °C -13.7 °C 34222.3 hPa ENE 23 km/h 41.4 km/h 92 % 0 mm
11:57 -13 °C -13.7 °C 34235.8 hPa NNE 38.8 km/h 44.1 km/h 92 % 0 mm
11:59 -12.9 °C -13.7 °C 34235.8 hPa NE 36.5 km/h 59.5 km/h 91 % 0 mm
12:03 -12.9 °C -13.6 °C 34235.8 hPa NE 23 km/h 41.4 km/h 92 % 0 mm
12:09 -12.9 °C -13.7 °C 34246 hPa ENE 31.4 km/h 41.4 km/h 91 % 0 mm
12:15 -12.9 °C -13.7 °C 34246 hPa NE 31.4 km/h 38.8 km/h 91 % 0 mm
12:21 -12.9 °C -13.7 °C 34246 hPa NE 26.2 km/h 41.4 km/h 91 % 0 mm
12:31 -12.8 °C -13.6 °C 34246 hPa NNE 20.9 km/h 44.1 km/h 91 % 0 mm
12:37 -12.8 °C -13.6 °C 34246 hPa NNE 20.9 km/h 49.2 km/h 91 % 0 mm
12:43 -12.8 °C -13.6 °C 34246 hPa NNE 26.2 km/h 46.7 km/h 91 % 0 mm
12:49 -12.9 °C -13.7 °C 34246 hPa NE 41.7 km/h 46.7 km/h 91 % 0 mm
12:57 -12.8 °C -13.6 °C 34246 hPa NNE 33.6 km/h 49.2 km/h 91 % 0 mm
13:03 -12.8 °C -13.6 °C 34235.8 hPa NNE 26.2 km/h 57 km/h 91 % 0 mm
13:09 -12.8 °C -13.6 °C 34235.8 hPa NNE 46.3 km/h 46.7 km/h 91 % 0 mm
13:16 -12.8 °C -13.6 °C 34235.8 hPa East 15.6 km/h 44.1 km/h 91 % 0 mm
13:21 -12.8 °C -13.6 °C 34246 hPa NNE 31.4 km/h 44.1 km/h 91 % 0 mm
13:23 -12.8 °C -13.6 °C 34246 hPa North 41.7 km/h 44.1 km/h 91 % 0 mm
13:29 -12.8 °C -13.7 °C 34256.2 hPa NE 17.9 km/h 46.7 km/h 90 % 0 mm
13:35 -12.8 °C -13.7 °C 34246 hPa NE 31.4 km/h 41.4 km/h 90 % 0 mm
13:41 -12.8 °C -13.6 °C 34256.2 hPa NE 17.9 km/h 44.1 km/h 91 % 0 mm
13:47 -12.8 °C -13.7 °C 34256.2 hPa NE 20.9 km/h 46.7 km/h 90 % 0 mm
13:53 -12.8 °C -13.6 °C 34256.2 hPa NE 28.5 km/h 46.7 km/h 91 % 0 mm
13:59 -12.9 °C -13.8 °C 34256.2 hPa NE 23 km/h 49.2 km/h 90 % 0 mm
14:07 -12.9 °C -13.8 °C 34256.2 hPa North 36.5 km/h 38.8 km/h 90 % 0 mm
14:13 -12.9 °C -13.8 °C 34256.2 hPa NNE 44.1 km/h 44.1 km/h 90 % 0 mm
14:19 -12.9 °C -13.8 °C 34256.2 hPa NE 23 km/h 38.8 km/h 90 % 0 mm
14:25 -12.9 °C -13.8 °C 34269.7 hPa NNE 10.3 km/h 18.2 km/h 90 % 0 mm
14:31 -12.9 °C -13.8 °C 34269.7 hPa NNE 20.9 km/h 28.5 km/h 90 % 0 mm
14:37 -12.9 °C -13.8 °C 34269.7 hPa North 20.9 km/h 36.2 km/h 90 % 0 mm
14:43 -12.9 °C -13.8 °C 34256.2 hPa NNE 28.5 km/h 46.7 km/h 90 % 0 mm
14:49 -12.9 °C -13.8 °C 34256.2 hPa NNE 31.4 km/h 41.4 km/h 90 % 0 mm
14:57 -12.9 °C -13.8 °C 34279.9 hPa ENE 36.5 km/h 49.2 km/h 90 % 0 mm
15:03 -12.9 °C -13.8 °C 34279.9 hPa ENE 41.7 km/h 41.7 km/h 90 % 0 mm
15:11 -12.9 °C -13.8 °C 34279.9 hPa NE 28.5 km/h 38.8 km/h 90 % 0 mm
15:17 -13 °C -13.8 °C 34279.9 hPa NE 31.4 km/h 38.8 km/h 90 % 0 mm
15:21 -13 °C -13.8 °C 34279.9 hPa NE 23 km/h 41.4 km/h 90 % 0 mm
15:23 -13 °C -13.8 °C 34279.9 hPa NNE 12.7 km/h 38.8 km/h 90 % 0 mm
15:27 -13 °C -13.8 °C 34279.9 hPa NNE 28.5 km/h 33.6 km/h 90 % 0 mm
15:33 -13 °C -13.8 °C 34279.9 hPa NNE 36.5 km/h 36.5 km/h 91 % 0 mm
15:37 -13.1 °C -13.8 °C 34269.7 hPa ENE 20.9 km/h 44.1 km/h 91 % 0 mm
15:43 -13.1 °C -13.8 °C 34246 hPa NNE 38.8 km/h 54.4 km/h 91 % 0 mm
15:49 -13.1 °C -13.9 °C 34246 hPa NNE 36.5 km/h 54.4 km/h 91 % 0 mm
15:57 -13.1 °C -13.9 °C 34269.7 hPa NNE 33.6 km/h 41.4 km/h 91 % 0 mm
16:05 -13.2 °C -13.9 °C 34293.4 hPa East 5.1 km/h 15.6 km/h 91 % 0 mm
16:11 -13.2 °C -13.9 °C 34303.6 hPa ESE 2.3 km/h 12.9 km/h 91 % 0 mm
16:17 -13.1 °C -13.9 °C 34313.7 hPa East 7.6 km/h 12.9 km/h 91 % 0 mm
16:23 -13.2 °C -13.9 °C 34303.6 hPa NE 26.2 km/h 31.1 km/h 91 % 0 mm
16:33 -13.2 °C -13.9 °C 34303.6 hPa ENE 20.9 km/h 28.5 km/h 91 % 0 mm
16:39 -13.2 °C -13.9 °C 34293.4 hPa NNE 7.6 km/h 31.1 km/h 91 % 0 mm
16:45 -13.2 °C -13.9 °C 34303.6 hPa NE 7.6 km/h 31.1 km/h 91 % 0 mm
16:52 -13.2 °C -13.9 °C 34303.6 hPa North 10.3 km/h 18.2 km/h 91 % 0 mm
16:57 -13.2 °C -14 °C 34313.7 hPa NNE 10.3 km/h 28.5 km/h 91 % 0 mm
17:03 -13.2 °C -13.9 °C 34313.7 hPa North 12.7 km/h 33.6 km/h 91 % 0 mm
17:11 -13.2 °C -14 °C 34313.7 hPa NE 10.3 km/h 12.9 km/h 91 % 0 mm
17:19 -13.2 °C -13.9 °C 34313.7 hPa NE 26.2 km/h 31.1 km/h 91 % 0 mm
17:28 -13.2 °C -13.9 °C 34313.7 hPa North 10.3 km/h 28.5 km/h 91 % 0 mm
17:34 -13.2 °C -13.9 °C 34313.7 hPa NNW 17.9 km/h 31.1 km/h 91 % 0 mm
17:39 -13.2 °C -14 °C 34313.7 hPa NE 15.6 km/h 23.3 km/h 91 % 0 mm
17:45 -13.2 °C -14 °C 34313.7 hPa NNW 23 km/h 28.5 km/h 91 % 0 mm
17:54 -13.3 °C -14.1 °C 34313.7 hPa NNE 5.1 km/h 23.3 km/h 91 % 0 mm
18:00 -13.3 °C -14.1 °C 34313.7 hPa NE 38.8 km/h 41.4 km/h 91 % 0 mm
18:04 -13.3 °C -14.1 °C 34327.3 hPa NNE 31.4 km/h 38.8 km/h 90 % 0 mm
18:10 -13.2 °C -14.1 °C 34337.4 hPa NNE 12.7 km/h 25.9 km/h 90 % 0 mm
18:16 -13.3 °C -14.1 °C 34337.4 hPa NE 20.9 km/h 28.5 km/h 90 % 0 mm
18:24 -13.3 °C -14.1 °C 34327.3 hPa NE 26.2 km/h 44.1 km/h 90 % 0 mm
18:30 -13.3 °C -14.1 °C 34327.3 hPa NE 20.9 km/h 51.8 km/h 90 % 0 mm
18:34 -13.3 °C -14.2 °C 34327.3 hPa NE 5.1 km/h 33.6 km/h 90 % 0 mm
18:36 -13.3 °C -14.1 °C 34327.3 hPa North 31.4 km/h 36.2 km/h 91 % 0 mm
18:40 -13.3 °C -14.1 °C 34327.3 hPa NNW 15.6 km/h 33.6 km/h 91 % 0 mm
18:42 -13.3 °C -14.1 °C 34327.3 hPa NE 28.5 km/h 36.2 km/h 91 % 0 mm
18:47 -13.3 °C -14.1 °C 34327.3 hPa NE 28.5 km/h 36.2 km/h 91 % 0 mm
18:54 -13.3 °C -14.1 °C 34347.6 hPa NNE 15.6 km/h 20.8 km/h 91 % 0 mm
18:58 -13.3 °C -14.2 °C 34347.6 hPa NNE 23 km/h 28.5 km/h 90 % 0 mm
19:00 -13.3 °C -14.2 °C 34347.6 hPa NE 12.7 km/h 28.5 km/h 90 % 0 mm
19:04 -13.3 °C -14.2 °C 34347.6 hPa NE 23 km/h 38.8 km/h 90 % 0 mm
19:10 -13.3 °C -14.2 °C 34347.6 hPa North 10.3 km/h 25.9 km/h 90 % 0 mm
19:16 -13.3 °C -14.2 °C 34347.6 hPa ENE 7.6 km/h 28.5 km/h 90 % 0 mm
19:22 -13.4 °C -14.2 °C 34347.6 hPa NE 12.7 km/h 28.5 km/h 90 % 0 mm
19:24 -13.4 °C -14.2 °C 34347.6 hPa NE 17.9 km/h 31.1 km/h 90 % 0 mm
19:28 -13.4 °C -14.2 °C 34361.1 hPa NE 23 km/h 38.8 km/h 90 % 0 mm
19:34 -13.4 °C -14.2 °C 34361.1 hPa NE 28.5 km/h 31.1 km/h 90 % 0 mm
19:41 -13.4 °C -14.2 °C 34361.1 hPa NNE 31.4 km/h 36.2 km/h 90 % 0 mm
19:46 -13.4 °C -14.2 °C 34361.1 hPa ENE 23 km/h 33.6 km/h 90 % 0 mm
19:52 -13.4 °C -14.2 °C 34361.1 hPa NE 20.9 km/h 31.1 km/h 90 % 0 mm
19:59 -13.4 °C -14.2 °C 34361.1 hPa NE 26.2 km/h 33.6 km/h 90 % 0 mm
20:06 -13.4 °C -14.2 °C 34361.1 hPa NNE 26.2 km/h 38.8 km/h 90 % 0 mm
20:12 -13.4 °C -14.2 °C 34347.6 hPa NE 26.2 km/h 31.1 km/h 90 % 0 mm
20:18 -13.4 °C -14.2 °C 34347.6 hPa NNW 12.7 km/h 33.6 km/h 90 % 0 mm
20:24 -13.4 °C -14.3 °C 34347.6 hPa NNE 10.3 km/h 23.3 km/h 90 % 0 mm
20:30 -13.4 °C -14.3 °C 34347.6 hPa NW 12.7 km/h 20.8 km/h 90 % 0 mm
20:36 -13.5 °C -14.3 °C 34347.6 hPa NNW 7.6 km/h 25.9 km/h 90 % 0 mm
20:42 -13.5 °C -14.3 °C 34347.6 hPa NW 20.9 km/h 31.1 km/h 91 % 0 mm
20:48 -13.5 °C -14.3 °C 34361.1 hPa NNE 20.9 km/h 20.9 km/h 91 % 0 mm
20:54 -13.5 °C -14.3 °C 34347.6 hPa North 28.5 km/h 33.6 km/h 91 % 0 mm
21:00 -13.5 °C -14.3 °C 34361.1 hPa NE 20.9 km/h 28.5 km/h 91 % 0 mm
21:02 -13.5 °C -14.3 °C 34361.1 hPa NNW 7.6 km/h 25.9 km/h 91 % 0 mm
21:08 -13.5 °C -14.3 °C 34371.3 hPa NE 10.3 km/h 36.2 km/h 91 % 0 mm
21:18 -13.4 °C -14.3 °C 34371.3 hPa NE 12.7 km/h 28.5 km/h 90 % 0 mm
21:24 -13.5 °C -14.3 °C 34371.3 hPa NE 12.7 km/h 25.9 km/h 90 % 0 mm
21:32 -13.5 °C -14.3 °C 34384.8 hPa WNW 7.6 km/h 20.8 km/h 90 % 0 mm
21:38 -13.6 °C -14.3 °C 34371.3 hPa North 20.9 km/h 25.9 km/h 91 % 0 mm
21:44 -13.6 °C -14.3 °C 34371.3 hPa NE 10.3 km/h 18.2 km/h 91 % 0 mm
21:53 -13.6 °C -14.3 °C 34371.3 hPa NE 23.3 km/h 23.3 km/h 91 % 0 mm
22:02 -13.6 °C -14.3 °C 34361.1 hPa NNW 7.6 km/h 31.1 km/h 91 % 0 mm
22:08 -13.7 °C -14.4 °C 34347.6 hPa North 23 km/h 28.5 km/h 91 % 0 mm
22:14 -13.7 °C -14.4 °C 34337.4 hPa North 26.2 km/h 38.8 km/h 91 % 0 mm
22:20 -13.7 °C -14.5 °C 34337.4 hPa NNW 10.3 km/h 31.1 km/h 91 % 0 mm
22:30 -13.8 °C -14.6 °C 34347.6 hPa NW 5.1 km/h 20.8 km/h 91 % 0 mm
22:32 -13.8 °C -14.6 °C 34347.6 hPa North 20.9 km/h 23.3 km/h 91 % 0 mm
22:36 -13.8 °C -14.6 °C 34347.6 hPa Calm   10.3 km/h 91 % 0 mm
22:38 -13.8 °C -14.6 °C 34361.1 hPa North 7.6 km/h 18.2 km/h 91 % 0 mm
22:46 -13.8 °C -14.6 °C 34347.6 hPa NW 10.3 km/h 38.8 km/h 91 % 0 mm
22:54 -13.8 °C -14.6 °C 34347.6 hPa NNE 20.9 km/h 25.9 km/h 91 % 0 mm
23:02 -13.8 °C -14.6 °C 34347.6 hPa NNE 20.9 km/h 36.2 km/h 91 % 0 mm
23:12 -13.9 °C -14.7 °C 34347.6 hPa NNW 7.6 km/h 20.8 km/h 91 % 0 mm
23:18 -13.9 °C -14.7 °C 34361.1 hPa NNE 10.3 km/h 18.2 km/h 91 % 0 mm
23:26 -13.9 °C -14.7 °C 34361.1 hPa NE 15.6 km/h 23.3 km/h 91 % 0 mm
23:32 -13.9 °C -14.7 °C 34361.1 hPa NNW 15.6 km/h 25.9 km/h 91 % 0 mm
23:38 -13.9 °C -14.7 °C 34371.3 hPa NE 7.6 km/h 20.8 km/h 91 % 0 mm
23:47 -13.9 °C -14.7 °C 34371.3 hPa ENE 17.9 km/h 25.9 km/h 91 % 0 mm
23:53 -13.9 °C -14.7 °C 34371.3 hPa NE 7.6 km/h 23.3 km/h 91 % 0 mm
23:58 -13.9 °C -14.6 °C 34371.3 hPa NE 7.6 km/h 28.5 km/h 92 % 0 mm
Meteo18
Compliments of Weather Underground - 4 mb

Script developed by  Jim McMurry - jmcmurry@mwt.net Adapted for the template by  Wim van der Kuil - Leuven-Template.eu

You find our weather info also at:

European Weather Network

Weather Underground

Equipment we use:

Weather-station
Davis Vue

Weather-program
Meteobridge

Weather-server
Raspberry PI 2 B+

Provider
1 and 1

Davis Vue

Meteobridge

Raspberry PI 2 B+

1 and 1